Погода в Мултаново

Россия / Астраханская область     46°19′49″N   48°46′35″E
темп.,
°C
ветер,
м/с
пор.,
м/с
влажн.,
%
обл.,
%
осадки,
мм/ч
давл.,
гПа
погр.,
м
2 июля, сб
сб201:00+21юз411545 0.0 1008424
04:00+21юз3105680 0.0 1007377
07:00+20сз355594 0.1 1007299
10:00+22ссз87379 0.2 10081218
13:00+26зсз57315 0.0 10072112
16:00+25зсз89240 0.0 10072585
19:00+23зсз892975 0.0 10072356
22:00+16сз22440 0.0 100822
3 июля, вс
вс301:00+15з81157100 0.4 1007663
04:00+14з410849 2.8 1006608
07:00+15зсз711680 0.0 1006829
10:00+20сз8123864 0.0 10062283
13:00+24сз912285 0.0 10072612
16:00+26сз10133181 0.0 10062760
19:00+24сз914408 0.0 10062229
22:00+19сз8146129 0.0 10081170
4 июля, пн
пн401:00+19сз8136079 0.0 10081089
04:00+17сз6127255 0.0 1009423
07:00+20сз712650 0.0 1010634
10:00+25ссз79400 0.0 10111624
13:00+29сз6732100 0.0 10102907
16:00+28сз583018 0.1 10092144
19:00+28зсз592753 0.0 10091171
22:00+23сз463827 0.0 101092
5 июля, вт
вт501:00+19ссз3461100 0.1 101054
04:00+19ссз5106653 0.1 1010347
07:00+20ссз611520 0.0 10121046
10:00+24ссз78380 0.0 10121751
13:00+27с78302 0.0 10122581
16:00+28с810245 0.0 10123179
19:00+27с692441 0.0 10123129
22:00+21ссз47305 0.0 1014127
6 июля, ср
ср601:00+19ссв34451 0.0 101558
04:00+17ссв33500 0.0 101623
07:00+20ссв35440 0.0 1017314
10:00+25ссв56280 0.0 10172221
13:00+27с56230 0.0 10172560
16:00+28с55200 0.0 10162704
19:00+27ссв34230 0.0 10172429
22:00+20ююз48530 0.0 1018167